Regional Weather Roundup
Issued by NWS

Home | Current Version | Previous Version | Text Only | Print | Product List | Glossary On
Versions: 1 2 3 4 5 6 7 8 9 10 11 12 13 14 15 16 17 18 19 20 21 22 23 24 25 26 27 28 29 30 31 32 33 34 35 36 37 38 39 40 41 42 43 44 45 46 47 48 49 50
000
ASUS44 KFWD 030103
RWRTX
NORTH TEXAS HOURLY WEATHER ROUNDUP
NATIONAL WEATHER SERVICE FORT WORTH TX
800 PM CDT MON MAY 02 2016

NOTE: "FAIR" INDICATES FEW OR NO CLOUDS BELOW 12,000 FEET WITH NO
SIGNIFICANT WEATHER AND/OR OBSTRUCTIONS TO VISIBILITY.

TXZ118-119-030200-
DALLAS/FORT WORTH METROPLEX

CITY           SKY/WX    TMP DP  RH WIND       PRES   REMARKS
DFW AIRPORT    MOCLDY    62  45  53 N12       30.09R
DALLAS LOVE    MOCLDY    62  47  57 N10       30.09S
FTW MEACHAM    CLOUDY    62  47  57 N9        30.09S
DAL-EXECUTIVE  CLOUDY    60  47  61 N8        30.09R
FTW-ALLIANCE   PTCLDY    60  46  59 NE7       30.10R
FTW-NAS-JRB    MOCLDY    63  45  51 N10       30.10S
FTW-SPINKS     PTCLDY    60  49  67 N6        30.11S
ARLINGTON      CLOUDY    64  47  53 N13       30.09S
GRAND PRAIRIE  MOCLDY    63  46  55 N9        30.11R
MESQUITE       MOCLDY    61  48  63 NW8       30.09S
LANCASTER      MOCLDY    61  47  60 N7        30.10S
$$

TXZ091>094-102>105-117-120-121-131>134-030200-
NORTH CENTRAL TEXAS

CITY           SKY/WX    TMP DP  RH WIND       PRES   REMARKS
SHRMAN/DENISON PTCLDY    54  43  66 N3        30.11S
BOWIE          MOCLDY    59  47  66 CALM      30.10S
BRIDGEPORT     CLEAR     60  48  65 NE3       30.12S
DECATUR        CLEAR     59  46  62 NE5       30.11R
DENTON         CLEAR     58  46  64 NE7       30.10S
MCKINNEY       CLOUDY    59  49  69 N6        30.10R
GREENVILLE     CLOUDY    59  48  67 N6        30.09S
ROCKWALL       CLOUDY    59  49  69 NW5       30.09
TERRELL        CLOUDY    61  49  64 N6        30.09S
WAXAHACHIE     PTCLDY    59  49  71 N7        30.11R
CLEBURNE       MOCLDY    61  52  72 N7        30.11S
GRANBURY       CLEAR     62  49  61 N5        30.11S
$$

TXZ083>090-098>101-113>116-127>130-139>142-154-155-030200-
WESTERN NORTH TEXAS

CITY           SKY/WX    TMP DP  RH WIND       PRES   REMARKS
WICHITA FALLS  PTCLDY    62  46  55 NE6       30.09R
WF-KICKAPOO    CLEAR     65  42  41 NE6       30.10S
VERNON         CLEAR     66  36  32 NE5       30.10S
ABILENE        NOT AVBL
BRECKENRIDGE   CLEAR     65  43  43 NE6       30.10R HAZE
GRAHAM         CLEAR     63  47  57 CALM      30.09R
MINERAL WELLS  CLEAR     61  47  59 NE6       30.09S
STEPHENVILLE   PTCLDY    61  48  61 NE3       30.13R
COMANCHE       MOCLDY    61  51  70 NE3       30.10S
COLEMAN        CLEAR     63  49  60 NE3       30.10S
$$

TXZ143>147-156>162-174-175-030200-
CENTRAL TEXAS

CITY           SKY/WX    TMP DP  RH WIND       PRES   REMARKS
WACO           PTCLDY    61  51  70 NE3       30.09S
WACO-MCGREGOR  CLEAR     60  52  74 N3        30.10R
HILLSBORO      MOCLDY    59  50  73 N6        30.10S
CORSICANA      MOCLDY    62  52  69 N7        30.10R
MEXIA          PTCLDY    60  51  74 N5        30.08R
HEARNE         CLOUDY    62  53  72 NW9       30.08S
CAMERON        CLOUDY    61  53  75 N5        30.08F
TEMPLE         PTCLDY    60  52  74 N7        30.10S
KILLEEN        NOT AVBL
KILLEEN-SKYLRK PTCLDY    59  52  77 N3        30.10S
HAMILTON       MOCLDY    61  51  69 NE3       30.11S
$$

TXZ095>097-106>112-122>126-135>138-148>153-164>167-030200-
EAST TEXAS

CITY           SKY/WX    TMP DP  RH WIND       PRES   REMARKS
PARIS          CLEAR     57  43  58 N9        30.08S
SULPHUR SPRNGS CLOUDY    61  50  67 N8        30.11R
MOUNT PLEASANT CLEAR     60  50  69 NW7       30.08R
MINEOLA        MOCLDY    61  52  72 NW8       30.08F
TYLER          PTCLDY    61  51  70 NW8       30.06S
LONGVIEW       MOCLDY    62  53  72 NW13      30.04R
MARSHALL       PTCLDY    63  55  76 NW6       30.05S
ATHENS         MOCLDY    61  50  67 NW6       30.07R
PALESTINE      CLOUDY    62  54  75 NW5       30.07S
JACKSONVILLE   MOCLDY    62  54  76 NW5       30.07S
HENDERSON      CLOUDY    61  54  77 NW6       30.06R
CENTER         LGT RAIN  66  61  82 NW9       30.02R
NACOGDOCHES    CLOUDY    64  57  77 NW7       30.03R
LUFKIN         MOCLDY    64  58  80 NW6       30.01F
$$

SUPPLEMENTAL OBSERVATIONS (CENTRAL)

CITY           SKY/WX    TMP DP  RH WIND       PRES   REMARKS
$$

SUPPLEMENTAL OBSERVATIONS (WEST)

CITY           SKY/WX    TMP DP  RH WIND       PRES   REMARKS
$$

SUPPLEMENTAL OBSERVATIONS (EAST)

CITY           SKY/WX    TMP DP  RH WIND       PRES   REMARKS
$$

SUPPLEMENTAL OBSERVATIONS ARE A COLLECTION OF AUTOMATED INSTRUMENTS
THAT ARE MAINTAINED BY A VARIETY OF FEDERAL AND STATE AGENCIES.
CERTAIN ELEMENTS...SUCH AS HUMIDITY VALUES AND SUSTAINED WIND
SPEEDS...MAY BE APPROXIMATED.





USA.gov is the U.S. government's official web portal to all federal, state and local government web resources and services.